TimeEST,TemperatureF,Dew PointF,Humidity,Sea Level PressureIn,VisibilityMPH,Wind Direction,Wind SpeedMPH,Gust SpeedMPH,PrecipitationIn,Events,Conditions,WindDirDegrees,DateUTC
12:15 AM,41.0,37.4,87,30.30,10.0,Calm,Calm,-,N/A,,Clear,0,2013-11-04 05:15:00
12:35 AM,41.0,37.4,87,30.30,10.0,Calm,Calm,-,N/A,,Clear,0,2013-11-04 05:35:00
12:55 AM,39.2,37.4,93,30.31,10.0,Calm,Calm,-,N/A,,Clear,0,2013-11-04 05:55:00
1:15 AM,39.2,37.4,93,30.31,10.0,Calm,Calm,-,N/A,,Clear,0,2013-11-04 06:15:00
1:55 AM,39.2,37.4,93,30.31,10.0,Calm,Calm,-,N/A,,Clear,0,2013-11-04 06:55:00
2:15 AM,41.0,37.4,87,30.31,10.0,Calm,Calm,-,N/A,,Clear,0,2013-11-04 07:15:00
2:35 AM,41.0,37.4,87,30.31,10.0,Calm,Calm,-,N/A,,Clear,0,2013-11-04 07:35:00
2:55 AM,39.2,37.4,93,30.32,10.0,Calm,Calm,-,N/A,,Clear,0,2013-11-04 07:55:00
3:15 AM,41.0,37.4,87,30.32,10.0,Calm,Calm,-,N/A,,Clear,0,2013-11-04 08:15:00
3:35 AM,39.2,37.4,93,30.32,10.0,Calm,Calm,-,N/A,,Clear,0,2013-11-04 08:35:00
3:55 AM,41.0,37.4,87,30.32,10.0,Calm,Calm,-,N/A,,Clear,0,2013-11-04 08:55:00
4:15 AM,39.2,37.4,93,30.31,10.0,East,3.5,-,N/A,,Clear,90,2013-11-04 09:15:00
4:35 AM,42.8,37.4,81,30.31,10.0,East,3.5,-,N/A,,Clear,90,2013-11-04 09:35:00
4:55 AM,41.0,37.4,87,30.32,10.0,Calm,Calm,-,N/A,,Clear,0,2013-11-04 09:55:00
5:15 AM,42.8,37.4,81,30.33,10.0,Calm,Calm,-,N/A,,Clear,0,2013-11-04 10:15:00
5:35 AM,41.0,37.4,87,30.34,10.0,Calm,Calm,-,N/A,,Clear,0,2013-11-04 10:35:00
5:55 AM,39.2,35.6,87,30.34,10.0,East,3.5,-,N/A,,Clear,100,2013-11-04 10:55:00
6:15 AM,39.2,37.4,93,30.34,10.0,Calm,Calm,-,N/A,,Clear,0,2013-11-04 11:15:00
6:35 AM,41.0,37.4,87,30.34,10.0,Calm,Calm,-,N/A,,Clear,0,2013-11-04 11:35:00
6:55 AM,42.8,37.4,81,30.34,2.5,East,4.6,-,N/A,,Clear,90,2013-11-04 11:55:00
7:15 AM,42.8,37.4,81,30.36,3.0,Calm,Calm,-,N/A,,Clear,0,2013-11-04 12:15:00
7:35 AM,42.8,37.4,81,30.37,7.0,East,4.6,-,N/A,,Clear,80,2013-11-04 12:35:00
7:55 AM,42.8,37.4,81,30.38,2.5,ENE,3.5,-,N/A,,Haze,70,2013-11-04 12:55:00
8:15 AM,44.6,39.2,81,30.39,4.0,Calm,Calm,-,N/A,,Haze,0,2013-11-04 13:15:00
8:35 AM,44.6,39.2,81,30.40,5.0,ENE,3.5,-,N/A,,Haze,70,2013-11-04 13:35:00
8:55 AM,46.4,39.2,76,30.40,7.0,East,6.9,-,N/A,,Clear,90,2013-11-04 13:55:00
9:15 AM,50.0,41.0,71,30.40,10.0,East,6.9,-,N/A,,Clear,90,2013-11-04 14:15:00
9:35 AM,51.8,41.0,67,30.39,10.0,ESE,6.9,-,N/A,,Clear,110,2013-11-04 14:35:00
9:55 AM,53.6,39.2,58,30.39,10.0,ESE,10.4,17.3,N/A,,Clear,120,2013-11-04 14:55:00
10:15 AM,53.6,39.2,58,30.39,10.0,ESE,8.1,18.4,N/A,,Clear,110,2013-11-04 15:15:00
10:35 AM,55.4,39.2,54,30.40,10.0,SE,13.8,21.9,N/A,,Clear,130,2013-11-04 15:35:00
10:55 AM,57.2,39.2,51,30.41,10.0,ESE,10.4,-,N/A,,Clear,110,2013-11-04 15:55:00
11:15 AM,59.0,37.4,45,30.40,10.0,ESE,12.7,20.7,N/A,,Clear,120,2013-11-04 16:15:00
11:35 AM,59.0,35.6,42,30.41,10.0,ESE,11.5,20.7,N/A,,Clear,120,2013-11-04 16:35:00
11:55 AM,60.8,35.6,39,30.41,10.0,SE,12.7,20.7,N/A,,Clear,130,2013-11-04 16:55:00
12:15 PM,60.8,35.6,39,30.40,10.0,East,9.2,16.1,N/A,,Clear,100,2013-11-04 17:15:00
12:35 PM,60.8,35.6,39,30.40,10.0,East,10.4,16.1,N/A,,Clear,100,2013-11-04 17:35:00
12:55 PM,62.6,35.6,37,30.38,10.0,East,8.1,-,N/A,,Clear,90,2013-11-04 17:55:00
1:15 PM,62.6,37.4,39,30.37,10.0,ESE,6.9,16.1,N/A,,Clear,110,2013-11-04 18:15:00
1:35 PM,62.6,35.6,37,30.37,10.0,SE,16.1,-,N/A,,Clear,140,2013-11-04 18:35:00
1:55 PM,62.6,35.6,37,30.36,10.0,ESE,10.4,17.3,N/A,,Clear,110,2013-11-04 18:55:00
2:15 PM,64.4,35.6,34,30.35,10.0,SE,8.1,-,N/A,,Clear,140,2013-11-04 19:15:00
2:35 PM,64.4,35.6,34,30.34,10.0,ESE,10.4,16.1,N/A,,Clear,120,2013-11-04 19:35:00
2:55 PM,64.4,37.4,37,30.35,10.0,ESE,5.8,16.1,N/A,,Clear,120,2013-11-04 19:55:00
3:15 PM,64.4,35.6,34,30.35,10.0,ESE,6.9,-,N/A,,Clear,120,2013-11-04 20:15:00
3:35 PM,64.4,35.6,34,30.35,10.0,SSE,11.5,-,N/A,,Clear,160,2013-11-04 20:35:00
3:55 PM,62.6,35.6,37,30.35,10.0,ESE,8.1,-,N/A,,Clear,120,2013-11-04 20:55:00
4:15 PM,62.6,35.6,37,30.34,10.0,ESE,5.8,-,N/A,,Clear,120,2013-11-04 21:15:00
4:35 PM,62.6,37.4,39,30.34,10.0,East,8.1,-,N/A,,Clear,90,2013-11-04 21:35:00
4:55 PM,60.8,37.4,42,30.34,10.0,East,5.8,-,N/A,,Clear,100,2013-11-04 21:55:00
5:15 PM,59.0,37.4,45,30.35,10.0,East,4.6,-,N/A,,Clear,100,2013-11-04 22:15:00
5:35 PM,57.2,37.4,48,30.35,10.0,East,3.5,-,N/A,,Clear,100,2013-11-04 22:35:00
5:55 PM,55.4,37.4,51,30.35,10.0,Calm,Calm,-,N/A,,Clear,0,2013-11-04 22:55:00
6:15 PM,55.4,37.4,51,30.35,10.0,East,3.5,-,N/A,,Clear,100,2013-11-04 23:15:00
6:35 PM,53.6,37.4,54,30.35,10.0,Calm,Calm,-,N/A,,Clear,0,2013-11-04 23:35:00
6:55 PM,53.6,37.4,54,30.36,10.0,ESE,3.5,-,N/A,,Clear,110,2013-11-04 23:55:00
7:15 PM,51.8,37.4,58,30.36,10.0,ESE,3.5,-,N/A,,Clear,110,2013-11-05 00:15:00
7:35 PM,51.8,37.4,58,30.37,10.0,East,3.5,-,N/A,,Clear,90,2013-11-05 00:35:00
7:55 PM,51.8,35.6,54,30.38,10.0,East,3.5,-,N/A,,Clear,100,2013-11-05 00:55:00
8:15 PM,51.8,35.6,54,30.38,10.0,Calm,Calm,-,N/A,,Clear,0,2013-11-05 01:15:00
8:35 PM,50.0,35.6,58,30.39,10.0,East,3.5,-,N/A,,Clear,90,2013-11-05 01:35:00
8:55 PM,50.0,35.6,58,30.39,10.0,East,3.5,-,N/A,,Clear,100,2013-11-05 01:55:00
9:15 PM,50.0,35.6,58,30.39,10.0,East,3.5,-,N/A,,Clear,100,2013-11-05 02:15:00
9:35 PM,50.0,35.6,58,30.40,10.0,ESE,3.5,-,N/A,,Clear,110,2013-11-05 02:35:00
9:55 PM,50.0,35.6,58,30.40,10.0,East,4.6,-,N/A,,Clear,100,2013-11-05 02:55:00
10:15 PM,50.0,35.6,58,30.40,10.0,East,4.6,-,N/A,,Clear,90,2013-11-05 03:15:00
10:35 PM,50.0,35.6,58,30.39,10.0,ESE,4.6,-,N/A,,Clear,110,2013-11-05 03:35:00
10:55 PM,50.0,35.6,58,30.40,10.0,ESE,3.5,-,N/A,,Clear,110,2013-11-05 03:55:00
11:15 PM,50.0,35.6,58,30.39,10.0,ESE,5.8,-,N/A,,Clear,110,2013-11-05 04:15:00
11:35 PM,50.0,35.6,58,30.39,10.0,ESE,4.6,-,N/A,,Clear,110,2013-11-05 04:35:00
11:55 PM,50.0,35.6,58,30.40,10.0,ESE,6.9,-,N/A,,Clear,110,2013-11-05 04:55:00